Orbital Elements at Epoch 2459200.5 (2020-Dec-17.0) TDB
Reference: JPL 19 (heliocentric ecliptic J2000)
Element | Value | Uncertainty (1-sigma) | Units |
e | .1636103601519914 | 3.8526e-08 | |
a | 2.275522229653191 | 7.0416e-09 | au |
q | 1.90322321812577 | 8.6332e-08 | au |
i | 3.771334081604143 | 3.2645e-06 | deg |
node | 148.6011685127267 | 6.3707e-05 | deg |
peri | 249.7522020819983 | 6.4692e-05 | deg |
M | 123.9639345190922 | 9.9903e-06 | deg |
tp | 2458768.769330074782 (2019-Oct-12.26933008) | 3.4802e-05 | TDB |
period | 1253.776284013809 3.43 | 5.8197e-06 1.593e-08 | d yr |
n | .2871325647088369 | 1.3328e-09 | deg/d |
Q | 2.647821241180612 | 8.1937e-09 | au |
|
| | Orbit Determination Parameters
Additional Information
|